When you browse on this site, cookies collect data to enhance your experience and personalize the content and advertising you see.
Visit our Privacy Policy to learn more. By continuing to use the site, you agree to this use of cookies and data.
  • In Germany
  • List of Countries
  • For 7 days
  • Water Temperature
  • Weather Map
  • Weather Widgets
  • user-avatar
    Login

    Hourly Weather Nadbiel

    Today, 27 May, Wednesday

    Time Temperature Precipitation Wind Pressure Humidity
    00:00 +9°C° 0 mm 3 mps 763 mmHg 92%
    01:00 +9°C° 0 mm 3 mps 763 mmHg 94%
    02:00 +9°C° 0 mm 3 mps 763 mmHg 94%
    03:00 +8°C° 0 mm 3 mps 763 mmHg 93%
    04:00 +8°C° 0 mm 3 mps 763 mmHg 93%
    05:00 +9°C° 0 mm 3 mps 763 mmHg 88%
    06:00 +11°C° 0 mm 3 mps 763 mmHg 82%
    07:00 +13°C° 0 mm 3 mps 763 mmHg 75%
    08:00 +14°C° 0 mm 4 mps 763 mmHg 69%
    09:00 +17°C° 0 mm 4 mps 763 mmHg 63%
    10:00 +18°C° 0 mm 4 mps 762 mmHg 57%
    11:00 +19°C° 0.1 mm 4 mps 762 mmHg 55%
    12:00 +19°C° 0.1 mm 5 mps 762 mmHg 53%
    13:00 +20°C° 0.1 mm 5 mps 761 mmHg 51%
    14:00 +20°C° 0 mm 5 mps 761 mmHg 53%
    15:00 +19°C° 0 mm 5 mps 761 mmHg 54%
    16:00 +19°C° 0 mm 5 mps 761 mmHg 55%
    17:00 +18°C° 0 mm 4 mps 761 mmHg 61%
    18:00 +16°C° 0 mm 3 mps 760 mmHg 66%
    19:00 +14°C° 0 mm 3 mps 760 mmHg 71%
    20:00 +14°C° 0 mm 2 mps 760 mmHg 75%
    21:00 +13°C° 0 mm 2 mps 760 mmHg 80%
    22:00 +12°C° 0 mm 2 mps 761 mmHg 84%
    23:00 +10°C° 0 mm 2 mps 760 mmHg 87%

    Tomorrow, 28 May, Thursday

    Time Temperature Precipitation Wind Pressure Humidity
    00:00 +10°C° 0 mm 2 mps 760 mmHg 89%
    01:00 +10°C° 0 mm 1 mps 760 mmHg 91%
    02:00 +10°C° 0 mm 1 mps 760 mmHg 91%
    03:00 +10°C° 0 mm 1 mps 759 mmHg 90%
    04:00 +10°C° 0 mm 1 mps 759 mmHg 90%
    05:00 +11°C° 0 mm 1 mps 759 mmHg 83%
    06:00 +13°C° 0 mm 1 mps 759 mmHg 77%
    07:00 +14°C° 0 mm 1 mps 759 mmHg 70%
    08:00 +16°C° 0.1 mm 2 mps 759 mmHg 66%
    09:00 +17°C° 0.1 mm 2 mps 759 mmHg 62%
    10:00 +18°C° 0.1 mm 2 mps 759 mmHg 58%
    11:00 +18°C° 0.1 mm 3 mps 758 mmHg 57%
    12:00 +19°C° 0.1 mm 3 mps 758 mmHg 56%
    13:00 +19°C° 0.1 mm 4 mps 757 mmHg 55%
    14:00 +19°C° 0.2 mm 4 mps 757 mmHg 58%
    15:00 +18°C° 0.2 mm 4 mps 757 mmHg 61%
    16:00 +18°C° 0.2 mm 4 mps 757 mmHg 65%
    17:00 +17°C° 0.1 mm 4 mps 757 mmHg 69%
    18:00 +16°C° 0.1 mm 3 mps 757 mmHg 74%
    19:00 +14°C° 0.1 mm 3 mps 757 mmHg 79%
    20:00 +13°C° 0 mm 3 mps 757 mmHg 83%
    21:00 +12°C° 0 mm 3 mps 757 mmHg 87%
    22:00 +11°C° 0 mm 4 mps 757 mmHg 91%
    23:00 +11°C° 0 mm 4 mps 757 mmHg 92%

    Day after tomorrow, 29 May, Friday

    Time Temperature Precipitation Wind Pressure Humidity
    00:00 +11°C° 0 mm 4 mps 757 mmHg 92%
    01:00 +9°C° 0 mm 5 mps 757 mmHg 93%
    02:00 +8°C° 0 mm 5 mps 757 mmHg 90%
    03:00 +8°C° 0 mm 5 mps 757 mmHg 88%
    04:00 +7°C° 0 mm 5 mps 757 mmHg 85%
    05:00 +8°C° 0 mm 5 mps 757 mmHg 81%
    06:00 +9°C° 0 mm 5 mps 757 mmHg 78%
    07:00 +10°C° 0 mm 6 mps 757 mmHg 74%
    08:00 +11°C° 0 mm 6 mps 757 mmHg 69%
    09:00 +14°C° 0 mm 7 mps 756 mmHg 65%
    10:00 +15°C° 0 mm 7 mps 756 mmHg 60%
    11:00 +16°C° 0 mm 7 mps 756 mmHg 58%
    12:00 +16°C° 0 mm 7 mps 756 mmHg 56%
    13:00 +17°C° 0 mm 7 mps 756 mmHg 54%
    14:00 +17°C° 0.1 mm 7 mps 755 mmHg 56%
    15:00 +16°C° 0.1 mm 7 mps 755 mmHg 58%
    16:00 +16°C° 0.1 mm 7 mps 755 mmHg 60%
    17:00 +15°C° 0.1 mm 6 mps 755 mmHg 64%
    18:00 +14°C° 0.1 mm 5 mps 755 mmHg 69%
    19:00 +13°C° 0.1 mm 5 mps 755 mmHg 73%
    20:00 +12°C° 0.1 mm 5 mps 755 mmHg 73%
    21:00 +12°C° 0.1 mm 5 mps 754 mmHg 74%
    22:00 +10°C° 0.1 mm 5 mps 754 mmHg 74%
    23:00 +10°C° 0 mm 6 mps 754 mmHg 74%

    30 May, Saturday

    Time Temperature Precipitation Wind Pressure Humidity
    00:00 +9°C° 0 mm 6 mps 754 mmHg 74%
    01:00 +9°C° 0 mm 6 mps 753 mmHg 73%
    02:00 +8°C° 0.5 mm 6 mps 753 mmHg 78%
    03:00 +8°C° 0.5 mm 6 mps 753 mmHg 83%
    04:00 +7°C° 0.5 mm 6 mps 752 mmHg 88%
    05:00 +7°C° 1.3 mm 6 mps 752 mmHg 89%
    06:00 +7°C° 1.3 mm 6 mps 752 mmHg 90%
    07:00 +7°C° 1.3 mm 6 mps 752 mmHg 92%
    08:00 +7°C° 0.7 mm 6 mps 752 mmHg 92%
    09:00 +8°C° 0.7 mm 6 mps 752 mmHg 92%
    10:00 +8°C° 0.7 mm 6 mps 752 mmHg 93%
    11:00 +8°C° 0.3 mm 6 mps 751 mmHg 92%
    12:00 +9°C° 0.3 mm 5 mps 751 mmHg 91%
    13:00 +10°C° 0.3 mm 5 mps 751 mmHg 90%
    14:00 +10°C° 0 mm 5 mps 751 mmHg 89%
    15:00 +12°C° 0 mm 5 mps 751 mmHg 88%
    16:00 +13°C° 0 mm 4 mps 751 mmHg 87%
    17:00 +13°C° 0 mm 4 mps 750 mmHg 88%
    18:00 +13°C° 0 mm 4 mps 750 mmHg 89%
    19:00 +13°C° 0 mm 4 mps 750 mmHg 91%
    20:00 +13°C° 0.4 mm 5 mps 750 mmHg 92%
    21:00 +13°C° 0.4 mm 5 mps 750 mmHg 94%
    22:00 +13°C° 0.4 mm 5 mps 749 mmHg 96%
    23:00 +13°C° 2.4 mm 5 mps 749 mmHg 96%

    31 May, Sunday

    Time Temperature Precipitation Wind Pressure Humidity
    00:00 +13°C° 2.4 mm 5 mps 749 mmHg 96%
    01:00 +13°C° 2.4 mm 6 mps 748 mmHg 96%
    02:00 +13°C° 2.5 mm 6 mps 748 mmHg 96%
    03:00 +13°C° 2.5 mm 6 mps 748 mmHg 96%
    04:00 +13°C° 2.5 mm 6 mps 748 mmHg 95%
    05:00 +12°C° 0.7 mm 7 mps 748 mmHg 94%
    06:00 +14°C° 0.7 mm 7 mps 748 mmHg 92%
    07:00 +14°C° 0.7 mm 7 mps 748 mmHg 91%
    08:00 +15°C° 0 mm 8 mps 748 mmHg 86%
    09:00 +16°C° 0 mm 8 mps 748 mmHg 82%
    10:00 +18°C° 0 mm 8 mps 748 mmHg 78%
    11:00 +18°C° 0 mm 8 mps 749 mmHg 77%
    12:00 +18°C° 0 mm 8 mps 749 mmHg 76%
    13:00 +18°C° 0 mm 8 mps 749 mmHg 75%
    14:00 +18°C° 0 mm 8 mps 750 mmHg 77%
    15:00 +18°C° 0 mm 7 mps 750 mmHg 78%
    16:00 +19°C° 0 mm 6 mps 751 mmHg 79%
    17:00 +17°C° 0 mm 6 mps 751 mmHg 79%
    18:00 +17°C° 0 mm 6 mps 751 mmHg 80%
    19:00 +17°C° 0 mm 5 mps 752 mmHg 80%
    20:00 +16°C° 0 mm 5 mps 752 mmHg 81%
    21:00 +16°C° 0 mm 5 mps 753 mmHg 82%
    22:00 +16°C° 0 mm 5 mps 753 mmHg 82%
    23:00 +15°C° 0 mm 5 mps 753 mmHg 81%

    1 June, Monday

    Time Temperature Precipitation Wind Pressure Humidity
    00:00 +15°C° 0 mm 5 mps 754 mmHg 81%
    01:00 +15°C° 0 mm 4 mps 754 mmHg 80%
    02:00 +14°C° 0 mm 4 mps 754 mmHg 78%
    03:00 +14°C° 0 mm 5 mps 754 mmHg 77%
    04:00 +13°C° 0 mm 5 mps 755 mmHg 75%
    05:00 +14°C° 0 mm 5 mps 755 mmHg 75%
    06:00 +14°C° 0 mm 5 mps 755 mmHg 75%
    07:00 +14°C° 0 mm 5 mps 756 mmHg 75%
    08:00 +16°C° 0 mm 5 mps 756 mmHg 71%
    09:00 +17°C° 0 mm 6 mps 756 mmHg 67%
    10:00 +20°C° 0 mm 6 mps 757 mmHg 62%
    11:00 +20°C° 0 mm 6 mps 757 mmHg 60%
    12:00 +21°C° 0 mm 6 mps 757 mmHg 57%
    13:00 +21°C° 0 mm 6 mps 757 mmHg 54%
    14:00 +21°C° 0 mm 6 mps 757 mmHg 55%
    15:00 +20°C° 0 mm 5 mps 756 mmHg 56%
    16:00 +20°C° 0 mm 5 mps 756 mmHg 57%
    17:00 +19°C° 0 mm 5 mps 757 mmHg 62%
    18:00 +17°C° 0 mm 4 mps 757 mmHg 67%
    19:00 +16°C° 0 mm 3 mps 757 mmHg 73%
    20:00 +14°C° 0 mm 3 mps 757 mmHg 76%
    21:00 +13°C° 0 mm 3 mps 757 mmHg 80%
    22:00 +12°C° 0 mm 3 mps 758 mmHg 83%
    23:00 +11°C° 0 mm 3 mps 758 mmHg 83%
    Show more